[TLELIST]

  • This mailing list is a public mailing list - anyone may join or leave, at any time.
  • This mailing list is announce-only.

International Space Station (ISS) / Hubble Space Telescope (HST) / Chandra X-Ray Observatory Orbital Data via EMAIL

Privacy Policy:

Private list

Archived Messages

 

[TLELIST] Current TLEs

February 4th 2026 PST

0 HST 1 20580U 90037B 26035.00659074 .00008870 00000-0 29858-3 0 9999 2 20580 28.4666 269.6866 0002008 97.1098 262.9725 15.28939114768159 0 ISS (ZARYA) 1 25544U 98067A 26035.01771291 .00010297 00000-0 19874-3 0 9995 2 25544 51.6311 238.8105 0011108 61.9619 298.2491 15.48378125551111 0 CXO 1 25867U 99040B 26034.50897227 .00000739 00000-0 00000-0 0 9994 2 25867 54.0018 120.6888 8050674 310.8579 0.1951 0.37804724 16822 ...Continue Reading

[TLELIST] Current TLEs

February 3rd 2026 PST

0 HST 1 20580U 90037B 26033.96221343 .00008282 00000-0 27848-3 0 9990 2 20580 28.4669 276.8051 0002014 87.5002 272.5824 15.28919278767990 0 ISS (ZARYA) 1 25544U 98067A 26034.04958920 .00010142 00000-0 19604-3 0 9993 2 25544 51.6308 243.5964 0011016 59.0626 301.1443 15.48354905550960 0 CXO 1 25867U 99040B 26034.50897227 .00000739 00000-0 00000-0 0 9994 2 25867 54.0018 120.6888 8050674 310.8579 0.1951 0.37804724 16822 ...Continue Reading

[TLELIST] Current TLEs

February 2nd 2026 PST

0 HST 1 20580U 90037B 26032.98309778 .00007402 00000-0 24825-3 0 9995 2 20580 28.4672 283.4789 0002010 78.1649 281.9172 15.28901089767840 0 ISS (ZARYA) 1 25544U 98067A 26033.08145127 .00008786 00000-0 17110-3 0 9994 2 25544 51.6312 248.3815 0011128 55.3966 304.8070 15.48333853550812 0 CXO 1 25867U 99040B 26034.50897227 .00000739 00000-0 00000-0 0 9994 2 25867 54.0018 120.6888 8050674 310.8579 0.1951 0.37804724 16822 ...Continue Reading

[TLELIST] Current TLEs

February 1st 2026 PST

0 HST 1 20580U 90037B 26032.00397088 .00007357 00000-0 24684-3 0 9991 2 20580 28.4676 290.1523 0001989 68.7566 291.3241 15.28884969767694 0 ISS (ZARYA) 1 25544U 98067A 26032.11330074 .00006524 00000-0 12933-3 0 9990 2 25544 51.6318 253.1662 0011128 51.9836 308.2155 15.48314896550661 0 CXO 1 25867U 99040B 26031.86492867 .00000788 00000-0 00000-0 0 9995 2 25867 53.9568 120.7716 8058093 310.8568 0.2877 0.37801727 16819 ...Continue Reading

[TLELIST] Current TLEs

January 31st 2026 PST

0 HST 1 20580U 90037B 26031.09010986 .00007960 00000-0 26779-3 0 9995 2 20580 28.4678 296.3809 0001993 60.4033 299.6761 15.28870007767555 0 ISS (ZARYA) 1 25544U 98067A 26031.01605124 .00007848 00000-0 15394-3 0 9993 2 25544 51.6322 258.5893 0011099 48.1305 312.0628 15.48297710550491 0 CXO 1 25867U 99040B 26031.86492867 .00000788 00000-0 00000-0 0 9995 2 25867 53.9568 120.7716 8058093 310.8568 0.2877 0.37801727 16819 ...Continue Reading

[TLELIST] Current TLEs

January 30th 2026 PST

0 HST 1 20580U 90037B 26029.98040843 .00010901 00000-0 36963-3 0 9990 2 20580 28.4680 303.9429 0001931 48.5567 311.5194 15.28850693767386 0 ISS (ZARYA) 1 25544U 98067A 26030.04787889 .00010491 00000-0 20300-3 0 9995 2 25544 51.6320 263.3752 0011112 44.5726 315.6154 15.48278961550344 0 CXO 1 25867U 99040B 26031.86492867 .00000788 00000-0 00000-0 0 9995 2 25867 53.9568 120.7716 8058093 310.8568 0.2877 0.37801727 16819 ...Continue Reading

[TLELIST] Current TLEs

January 30th 2026 PST

0 HST 1 20580U 90037B 26029.98040843 .00010901 00000-0 36963-3 0 9990 2 20580 28.4680 303.9429 0001931 48.5567 311.5194 15.28850693767386 0 ISS (ZARYA) 1 25544U 98067A 26030.04787889 .00010491 00000-0 20300-3 0 9995 2 25544 51.6320 263.3752 0011112 44.5726 315.6154 15.48278961550344 0 CXO 1 25867U 99040B 26031.86492867 .00000788 00000-0 00000-0 0 9995 2 25867 53.9568 120.7716 8058093 310.8568 0.2877 0.37801727 16819 ...Continue Reading

[TLELIST] Current TLEs

January 29th 2026 PST

0 HST 1 20580U 90037B 26028.93596839 .00011557 00000-0 39257-3 0 9992 2 20580 28.4680 311.0608 0001889 37.6282 322.4445 15.28827552767221 0 ISS (ZARYA) 1 25544U 98067A 26028.88605451 .00011021 00000-0 21300-3 0 9999 2 25544 51.6319 269.1180 0011179 40.2849 319.8966 15.48254051550164 0 CXO 1 25867U 99040B 26029.22066446 .00000801 00000-0 00000+0 0 9997 2 25867 53.9016 120.8729 8064103 310.8270 0.4043 0.37803407 16804 ...Continue Reading

[TLELIST] Current TLEs

January 29th 2026 PST

0 HST 1 20580U 90037B 26028.93596839 .00011557 00000-0 39257-3 0 9992 2 20580 28.4680 311.0608 0001889 37.6282 322.4445 15.28827552767221 0 ISS (ZARYA) 1 25544U 98067A 26028.88605451 .00011021 00000-0 21300-3 0 9999 2 25544 51.6319 269.1180 0011179 40.2849 319.8966 15.48254051550164 0 CXO 1 25867U 99040B 26029.22066446 .00000801 00000-0 00000+0 0 9997 2 25867 53.9016 120.8729 8064103 310.8270 0.4043 0.37803407 16804 ...Continue Reading

[TLELIST] Current TLEs

January 28th 2026 PST

0 HST 1 20580U 90037B 26026.91231925 .00011194 00000-0 38058-3 0 9995 2 20580 28.4681 324.8513 0001798 15.3810 344.6840 15.28781771766910 0 ISS (ZARYA) 1 25544U 98067A 26027.65966300 .00011148 00000-0 21554-3 0 9997 2 25544 51.6319 275.1786 0011156 36.3768 323.7976 15.48229162549971 0 CXO 1 25867U 99040B 26029.22066446 .00000801 00000-0 00000+0 0 9997 2 25867 53.9016 120.8729 8064103 310.8270 0.4043 0.37803407 16804 ...Continue Reading